Weather reports worldwide

Advertisment
High Wycombe, United Kingdom (3660): temperature & dewpoint: 20.03.2019 07:00:00 - 26.03.2019 07:00:00 (GMT)High Wycombe, United Kingdom (3660): wind speed: 20.03.2019 07:00:00 - 26.03.2019 07:00:00 (GMT)High Wycombe, United Kingdom (3660): wind direction: 20.03.2019 07:00:00 - 26.03.2019 07:00:00 (GMT)High Wycombe, United Kingdom (3660): reduced air pressure: 20.03.2019 07:00:00 - 26.03.2019 07:00:00 (GMT)High Wycombe, United Kingdom (3660): visibility: 20.03.2019 07:00:00 - 26.03.2019 07:00:00 (GMT)High Wycombe, United Kingdom (3660): precipitation: 20.03.2019 07:00:00 - 26.03.2019 07:00:00 (GMT)
Date & Time tt [°C] td [°C] ff [km/h] ff [kn] dd ppp [hPa] vv [km] rr [mm]
26.03.2019 07:00:00 - - - - - - - -
26.03.2019 06:00:00 1,1 0,4 5 3 NW 1035,4 12 0,0
26.03.2019 05:00:00 1,4 0,3 4 2 NNW 1035,2 14 0,0
26.03.2019 04:00:00 1,8 0,0 5 3 NW 1035,4 15 0,0
26.03.2019 03:00:00 2,1 0,0 4 2 NW 1035,5 14 0,0
26.03.2019 02:00:00 2,7 0,1 5 3 NW 1035,8 16 0,0
26.03.2019 01:00:00 4,4 0,7 4 2 S 1035,7 14 0,0
26.03.2019 00:00:00 4,6 0,9 5 3 SE 1035,8 17 0,0
25.03.2019 23:00:00 4,6 0,7 2 1 ENE 1036,0 18 0,0
25.03.2019 22:00:00 5,0 0,0 8 4 E 1035,5 22 0,0
25.03.2019 21:00:00 6,2 -0,6 4 2 NE 1035,1 28 0,0
25.03.2019 20:00:00 7,2 -0,1 5 3 ENE 1034,5 16 0,0
25.03.2019 19:00:00 7,8 0,2 5 3 E 1034,1 25 0,0
25.03.2019 18:00:00 9,4 -0,4 9 5 N 1033,3 28 0,0
25.03.2019 17:00:00 10,7 0,0 13 7 N 1032,9 35 0,0
25.03.2019 16:00:00 11,3 0,0 11 6 NNE 1032,8 30 0,0
25.03.2019 15:00:00 10,9 0,2 15 8 NNE 1032,6 30 0,0
25.03.2019 14:00:00 11,2 0,4 13 7 N 1032,9 27 0,0
25.03.2019 13:00:00 10,3 -0,1 15 8 N 1032,9 35 0,0
25.03.2019 12:00:00 9,0 0,6 15 8 NNW 1033,2 16 0,0
25.03.2019 11:00:00 9,1 0,8 18 10 N 1033,0 23 0,0
25.03.2019 10:00:00 8,2 1,1 15 8 N 1032,8 26 0,0
25.03.2019 09:00:00 6,6 1,7 18 10 N 1032,3 13 0,0
25.03.2019 08:00:00 5,1 1,8 16 9 N 1031,6 14 0,0
25.03.2019 07:00:00 3,5 1,1 11 6 NNW 1030,8 11 0,0
25.03.2019 06:00:00 2,8 0,8 9 5 NW 1030,3 13 0,0
25.03.2019 05:00:00 3,4 1,0 11 6 NNW 1029,6 14 0,0
25.03.2019 04:00:00 4,0 1,4 11 6 NNW 1029,1 14 0,0
25.03.2019 03:00:00 5,1 2,2 13 7 NW 1028,9 16 0,0
25.03.2019 02:00:00 5,6 2,7 13 7 WNW 1028,6 24 0,0
25.03.2019 01:00:00 5,7 2,5 16 9 WNW 1028,6 28 0,0
25.03.2019 00:00:00 5,7 2,1 15 8 WNW 1029,0 26 0,0
24.03.2019 23:00:00 5,4 1,5 13 7 WNW 1029,4 35 0,0
24.03.2019 22:00:00 5,7 1,1 13 7 WNW 1029,6 40 0,0
24.03.2019 21:00:00 6,7 1,3 9 5 WNW 1029,7 45 0,0
24.03.2019 20:00:00 7,2 0,6 11 6 WNW 1029,7 50 0,0
24.03.2019 19:00:00 7,7 0,0 9 5 NW 1029,5 50 0,0
24.03.2019 18:00:00 9,0 -0,1 11 6 NW 1029,1 35 0,0
24.03.2019 17:00:00 11,0 0,9 13 7 NW 1028,8 45 0,0
24.03.2019 16:00:00 11,5 0,3 13 7 NW 1028,8 30 0,0
24.03.2019 15:00:00 11,9 1,3 13 7 WNW 1029,2 30 0,0
24.03.2019 14:00:00 12,1 2,4 13 7 NW 1029,4 20 0,0
24.03.2019 13:00:00 12,1 1,7 9 5 WNW 1030,0 20 0,0
24.03.2019 12:00:00 11,5 1,9 9 5 WNW 1030,7 21 0,0
24.03.2019 11:00:00 10,1 1,9 9 5 NW 1031,3 16 0,0
24.03.2019 10:00:00 9,2 2,9 9 5 NW 1031,8 16 0,0
24.03.2019 09:00:00 8,1 2,9 5 3 NW 1031,9 13 0,0
24.03.2019 08:00:00 4,8 2,4 5 3 NW 1032,1 15 0,0
24.03.2019 07:00:00 4,3 1,9 4 2 NW 1031,7 15 0,0
24.03.2019 06:00:00 4,1 1,5 5 3 NW 1031,8 17 0,0
24.03.2019 05:00:00 3,9 2,0 4 2 SE 1031,4 12 0,0
24.03.2019 04:00:00 4,3 1,8 5 3 SE 1031,3 14 0,0
24.03.2019 03:00:00 3,9 1,9 4 2 ESE 1031,9 11 0,0
24.03.2019 02:00:00 4,0 1,7 8 4 E 1032,5 12 0,0
24.03.2019 01:00:00 4,6 2,0 9 5 E 1033,1 14 0,0
24.03.2019 00:00:00 4,8 1,9 8 4 ESE 1033,4 15 0,0
23.03.2019 23:00:00 5,5 2,6 11 6 E 1033,3 13 0,0
23.03.2019 22:00:00 6,0 1,8 11 6 ESE 1033,3 15 0,0
23.03.2019 21:00:00 6,4 0,7 11 6 E 1033,4 23 0,0
23.03.2019 20:00:00 6,8 0,6 9 5 E 1033,2 24 0,0
23.03.2019 19:00:00 7,4 0,7 9 5 ENE 1032,8 26 0,0
23.03.2019 18:00:00 8,8 1,3 8 4 ENE 1032,5 24 0,0
23.03.2019 17:00:00 10,2 1,7 11 6 NE 1032,2 16 0,0
23.03.2019 16:00:00 10,7 1,4 11 6 NE 1032,3 40 0,0
23.03.2019 15:00:00 10,8 2,1 15 8 NE 1032,3 20 0,0
23.03.2019 14:00:00 11,5 2,1 13 7 NE 1032,3 22 0,0
23.03.2019 13:00:00 11,4 2,1 9 5 NE 1032,7 26 0,0
23.03.2019 12:00:00 11,1 2,4 11 6 ENE 1032,8 23 0,0
23.03.2019 11:00:00 9,2 1,5 13 7 NNE 1033,0 23 0,0
23.03.2019 10:00:00 9,3 4,1 15 8 NE 1032,8 35 0,0
23.03.2019 09:00:00 7,5 5,1 11 6 NNE 1032,5 15 0,0
23.03.2019 08:00:00 8,2 6,6 5 3 N 1031,8 8 0,0
23.03.2019 07:00:00 7,5 6,9 4 2 N 1030,9 4,5 0,0
23.03.2019 06:00:00 7,3 6,7 5 3 N 1030,6 4,5 0,0
23.03.2019 05:00:00 7,4 6,6 2 1 N 1030,1 5 0,0
23.03.2019 04:00:00 7,5 6,7 8 4 NNW 1029,7 4,3 0,0
23.03.2019 03:00:00 7,8 6,7 5 3 WNW 1029,2 7 0,0
23.03.2019 02:00:00 7,9 6,6 8 4 WNW 1028,8 9 0,0
23.03.2019 01:00:00 7,8 6,5 8 4 WNW 1028,5 9 0,0
23.03.2019 00:00:00 6,8 6,1 5 3 WNW 1028,3 9 0,0
22.03.2019 23:00:00 6,7 5,8 8 4 W 1028,4 11 0,0
22.03.2019 22:00:00 8,1 6,2 4 2 W 1028,4 16 0,0
22.03.2019 21:00:00 8,9 6,5 4 2 WSW 1028,1 25 0,0
22.03.2019 20:00:00 9,0 6,4 8 4 WSW 1027,8 30 0,0
22.03.2019 19:00:00 8,9 6,4 5 3 WSW 1027,9 35 0,0
22.03.2019 18:00:00 9,1 6,4 9 5 WSW 1027,5 35 0,0
22.03.2019 17:00:00 9,2 6,5 11 6 W 1026,9 17 0,0
22.03.2019 16:00:00 9,4 6,6 11 6 W 1027,0 14 0,0
22.03.2019 15:00:00 9,3 6,7 11 6 WSW 1027,2 11 0,0
22.03.2019 14:00:00 9,2 6,5 11 6 WSW 1027,5 12 0,0
22.03.2019 13:00:00 9,2 6,5 8 4 WSW 1027,8 13 0,0
22.03.2019 12:00:00 8,8 6,8 9 5 SW 1028,4 14 0,0
22.03.2019 11:00:00 8,0 6,2 11 6 SW 1028,7 13 0,0
22.03.2019 10:00:00 7,7 6,2 11 6 WSW 1029,1 11 0,0
22.03.2019 09:00:00 7,4 6,1 13 7 SW 1029,3 12 0,0
22.03.2019 08:00:00 7,5 6,1 11 6 SW 1029,3 7 0,0
22.03.2019 07:00:00 7,4 6,0 9 5 SSW 1029,0 7 0,0
22.03.2019 06:00:00 7,5 5,8 11 6 SW 1029,3 8 0,0
22.03.2019 05:00:00 8,1 6,0 9 5 SW 1029,3 10 0,0
22.03.2019 04:00:00 8,7 6,3 8 4 SSW 1029,4 13 0,0
22.03.2019 03:00:00 9,2 7,1 8 4 SSW 1029,8 12 0,0
22.03.2019 02:00:00 9,4 7,0 9 5 S 1030,0 16 0,0
22.03.2019 01:00:00 9,7 7,0 9 5 SSW 1030,6 18 0,0
22.03.2019 00:00:00 9,9 7,3 8 4 S 1030,6 20 0,0
21.03.2019 23:00:00 9,9 8,0 8 4 S 1031,1 12 0,0
21.03.2019 22:00:00 10,0 7,9 5 3 S 1031,8 14 0,0
21.03.2019 21:00:00 9,5 8,0 2 1 ESE 1032,4 11 0,0
21.03.2019 20:00:00 9,6 7,9 2 1 NE 1032,7 11 0,0
21.03.2019 19:00:00 9,8 8,0 5 3 ESE 1032,7 14 0,0
21.03.2019 18:00:00 10,0 8,1 0 0 N 1032,5 13 0,0
21.03.2019 17:00:00 10,2 8,2 4 2 WSW 1032,5 17 0,0
21.03.2019 16:00:00 10,4 8,4 4 2 NW 1032,4 17 0,0
21.03.2019 15:00:00 10,7 8,7 4 2 NNW 1032,8 16 0,0
21.03.2019 14:00:00 10,8 8,5 5 3 NW 1033,5 19 0,0
21.03.2019 13:00:00 11,1 8,9 5 3 NW 1034,1 22 0,0
21.03.2019 12:00:00 10,1 8,0 9 5 NW 1034,3 19 0,0
21.03.2019 11:00:00 9,8 8,1 8 4 W 1034,4 17 0,0
21.03.2019 10:00:00 10,0 8,6 8 4 W 1034,2 25 0,0
21.03.2019 09:00:00 9,6 7,8 9 5 WSW 1033,9 35 0,0
21.03.2019 08:00:00 8,3 7,8 8 4 WSW 1033,8 8 0,0
21.03.2019 07:00:00 7,8 7,2 4 2 SW 1033,5 7 0,0
21.03.2019 06:00:00 7,9 7,4 5 3 WSW 1033,3 7 0,0
21.03.2019 05:00:00 7,6 7,2 5 3 WNW 1033,0 5 0,0
21.03.2019 04:00:00 7,5 7,1 8 4 W 1032,8 4,9 0,0
21.03.2019 03:00:00 7,7 7,1 11 6 WNW 1032,8 6 0,0
21.03.2019 02:00:00 7,9 7,0 9 5 W 1033,2 11 0,0
21.03.2019 01:00:00 8,5 7,2 11 6 W 1033,2 16 0,0
21.03.2019 00:00:00 9,0 7,1 9 5 WSW 1033,2 35 0,0
20.03.2019 23:00:00 9,2 7,0 9 5 SW 1033,3 40 0,0
20.03.2019 22:00:00 9,2 6,9 9 5 WSW 1033,3 30 0,0
20.03.2019 21:00:00 9,6 7,2 5 3 W 1033,2 45 0,0
20.03.2019 20:00:00 10,1 7,5 5 3 WSW 1033,1 50 0,0
20.03.2019 19:00:00 10,1 7,5 5 3 W 1033,0 45 0,0
20.03.2019 18:00:00 10,3 7,7 8 4 W 1032,6 45 0,0
20.03.2019 17:00:00 11,0 8,0 8 4 W 1032,3 30 0,0
20.03.2019 16:00:00 11,2 8,0 9 5 SW 1032,2 45 0,0
20.03.2019 15:00:00 11,5 7,6 8 4 WSW 1032,3 45 0,0
20.03.2019 14:00:00 10,6 7,5 8 4 WSW 1032,7 45 0,0
20.03.2019 13:00:00 10,0 7,3 8 4 WSW 1033,0 30 0,0
20.03.2019 12:00:00 9,7 7,6 9 5 W 1033,0 40 0,0
20.03.2019 11:00:00 9,0 7,7 11 6 SW 1032,9 35 0,0
20.03.2019 10:00:00 8,4 7,8 9 5 SW 1033,0 4,6 0,0
20.03.2019 09:00:00 8,4 7,5 8 4 W 1033,0 12 0,0
20.03.2019 08:00:00 8,4 7,5 9 5 W 1032,2 25 0,0
20.03.2019 07:00:00 7,9 7,3 9 5 WNW 1031,6 14 0,0

tt = temperature
td = dewpoint
ff = wind speed
dd = wind direction
ppp = reduced air pressure
vv = visibility
rr = precipitation

Next stations